Regional Weather Roundup
Issued by NWS

Home | Current Version | Previous Version | Text Only | Print | Product List | Glossary On
Versions: 1 2 3 4 5 6 7 8 9 10 11 12 13 14 15 16 17 18 19 20 21 22 23 24 25 26 27 28 29 30 31 32 33 34 35 36 37 38 39 40 41 42 43 44 45 46 47 48 49 50
099
ASUS43 KDMX 200401
RWRIA

WEATHER ROUNDUP FOR IOWA
NATIONAL WEATHER SERVICE DES MOINES IA
1000 PM CST SUN FEB 19 2017

NOTE: "FAIR" INDICATES FEW OR NO CLOUDS BELOW 12,000 FEET WITH NO
SIGNIFICANT WEATHER AND/OR OBSTRUCTIONS TO VISIBILITY.

* - THESE STATIONS ARE NOT NWS STATIONS...THUS NOT UNDER NWS
QUALITY CONTROL.  THEY ALSO DO NOT REPORT WEATHER SUCH
AS PRECIPITATION OR FOG.

IAZ001>003-012>014-020>022-031>034-043>046-200500-
   NORTHWEST IOWA

CITY           SKY/WX    TMP DP  RH WIND       PRES   REMARKS
CARROLL *      PTCLDY    48  46  93 S8        29.84R
CHEROKEE *     CLOUDY    53  49  87 S9        29.80R
DENISON *      CLOUDY    57  50  77 S14G24    29.82R
LE MARS *      CLOUDY    57  52  82 S17       29.77R
SHELDON *      CLOUDY    54  54 100 S20       29.76R
SIOUX CITY     CLOUDY    61  53  75 S21G28    29.79R
SPENCER        CLOUDY    55  48  77 SE17      29.79F
STORM LAKE *   PTCLDY    50  46  87 SE13      29.81S
$$

IAZ055>058-069>071-079>083-090>094-200500-
   SOUTHWEST IOWA

CITY           SKY/WX    TMP DP  RH WIND       PRES   REMARKS
ATLANTIC *     CLOUDY    57  50  77 S9        29.85R
CLARINDA *     CLOUDY    52  48  87 SW3         N/A
COUNCIL BLFS *   N/A     57  55  94 S13       29.85R
CRESTON *      CLOUDY    57  48  72 S12       29.89R
HARLAN  *      CLOUDY    55  52  88 S7        29.89R
LAMONI         CLOUDY    59  47  64 SE9       29.90R
RED OAK *      PTCLDY    55  50  82 VRB3      29.86R
SHENANDOAH *   PTCLDY    55  52  88 CALM      29.88R
$$

IAZ047>049-059>061-072>074-084-200500-
   CENTRAL IOWA

CITY           SKY/WX    TMP DP  RH WIND       PRES   REMARKS
AMES           CLOUDY    55  48  77 SE10      29.88S
ANKENY *       CLOUDY    57  48  72 SE10      29.89S
BOONE *          N/A     50  46  87 SE13      29.87S
CHARITON *     PTCLDY    57  46  67 SE12      29.90S
DES MOINES     MOCLDY    61  46  57 SE10      29.89R
GRINNELL*      CLOUDY    57  47  70 SE12      29.93S
KNOXVILLE *    PTCLDY    59  46  63 SE10      29.89S
MARSHALLTOWN   PTCLDY    54  47  77 SE12      29.90F
NEWTON *       CLOUDY    52  46  82 SE9       29.90S
PELLA *        PTCLDY    60  47  62 SE9       29.92S
PERRY *          N/A     49  44  83 SE9       29.86S
$$

IAZ004>006-015-016-023>025-035-036-200500-
   NORTH CENTRAL IOWA

CITY           SKY/WX    TMP DP  RH WIND       PRES   REMARKS
ALGONA *       CLOUDY    55  48  76 SE18      29.85R
CLARION *      PTCLDY    54  48  82 SE17      29.87S
ESTHERVILLE    CLOUDY    50  47  89 SE14      29.82R
FORT DODGE *   CLOUDY    54  45  71 SE8       29.87R
MASON CITY     CLOUDY    48  43  82 SE10      29.90F
FOREST CITY *    N/A     50  45  81 SE12      29.88S
IOWA FALLS *     N/A     50  45  82 SE10      29.91S
$$

IAZ007>011-017>019-026>030-037>042-050>054-066-200500-
   NORTHEAST IOWA

CITY           SKY/WX    TMP DP  RH WIND       PRES   REMARKS
CEDAR RAPIDS   CLOUDY    56  46  69 SE9       29.95F
CHARLES CITY * CLOUDY    50  45  81 SE12      29.94R
CLINTON *      MOCLDY    50  42  74 SE12      30.04R
DECORAH *      PTCLDY    50  37  62 SE13G20   29.95S
DUBUQUE        CLOUDY    51  40  65 SE13      30.01S
MONTICELLO *   CLOUDY    54  43  66 SE9       29.99R
OELWEIN *      CLOUDY    48  43  81 SE9       29.97S
WATERLOO       CLOUDY    53  43  68 SE10      29.94R
$$

IAZ064-065-067-068-078-200500-
   EAST CENTRAL IOWA

CITY           SKY/WX    TMP DP  RH WIND       PRES   REMARKS
DAVENPORT      CLOUDY    57  45  64 S14       30.02S
IOWA CITY      CLOUDY    51  43  74 SE5       29.99S
MUSCATINE *    CLOUDY    57  46  67 SE8       30.00R
QUAD CITIES    CLOUDY    57  44  62 SE10      30.02R
$$

IAZ062-063-075>077-085>089-095>099-200500-
   SOUTHEAST IOWA

CITY           SKY/WX    TMP DP  RH WIND       PRES   REMARKS
BURLINGTON     CLOUDY    59  49  69 SE12      29.99S
FAIRFIELD *    CLOUDY    61  46  59 SE17      29.95S
KEOKUK *       CLOUDY    61  48  63 SE10      29.98F
OTTUMWA        PTCLDY    62  47  57 SE14      29.93S
WASHINGTON *   CLOUDY    55  46  71 SE12      29.98S
$$

ABBREVIATIONS USED IN REMARKS
   TC - TEMPERATURES IN CELSIUS
  WCI - WIND CHILL INDEX
   HX - HEAT INDEX
  VSB - VISIBILITY
$$





USA.gov is the U.S. government's official web portal to all federal, state and local government web resources and services.